SCP
2 2 2 3 3 3 4 4 3 3 3 3 3 2 3 3 3 3 3 3 3 3 3 3 4 4 4 4 4 4 4 4 4 3 2 1 1 2 2 2 1 1 2
3 3 3 3 3 3 3 4 4 4 4 3 3 3 3 3 4 4 3 3 3 3 3 3 3 4 4 4 4 4 3 4 4 3 2 2 2 2 2 2 1 1 2
3 3 3 3 3 3 3 4 4 4 4 4 4 4 4 3 3 3 3 2 2 2 2 3 3 3 3 4 3 3 3 3 3 3 2 2 2 2 1 1 1 1 1
3 3 3 4 4 4 4 4 4 4 4 4 4 4 3 3 2 2 2 2 2 2 2 2 2 2 2 2 3 3 3 3 2 2 2 2 2 2 1 1 1 1 1
3 3 3 3 3 3 4 5 5 5 4 4 4 4 3 3 2 2 2 2 2 2 2 2 2 2 2 2 2 2 2 2 2 1 1 1 1 1 1 1 1 1 1
3 3 3 3 3 3 4 5 6 5 5 4 4 4 3 3 3 2 2 2 2 2 2 2 2 2 2 2 2 2 2 2 2 1 1 1 1 2 2 2 1 1 1
3 3 3 3 3 3 4 5 6 6 5 5 4 4 3 3 3 3 3 3 3 3 3 2 2 2 2 2 2 2 2 2 2 2 2 2 2 2 2 2 2 2 1
2 3 3 3 3 4 4 5 6 7 6 6 5 5 4 4 3 3 3 3 3 3 3 3 3 3 2 2 2 2 2 2 2 2 3 3 3 3 3 3 3 3 2
2 3 3 3 3 4 5 7 8 8 7 7 7 6 6 6 5 4 3 3 3 4 4 4 3 3 3 3 3 3 2 2 2 2 3 4 5 4 4 4 4 4 3
2 3 3 3 4 4 5 8 9 9 8 8 8 8 9 9 7 5 4 4 4 5 6 5 4 3 3 4 3 3 2 2 2 3 4 5 5 5 5 5 5 4 3
2 2 3 3 4 4 5 7 10 10 9 8 8 9 10 10 8 7 6 5 5 6 7 6 4 3 4 4 4 4 3 3 3 3 4 5 5 5 5 5 4 4 3
2 3 3 3 3 4 5 7 9 10 9 8 7 8 10 10 10 9 7 6 6 6 6 6 5 4 3 4 5 4 4 4 5 5 5 5 5 4 4 4 4 4 3
2 3 3 3 4 5 6 7 8 8 8 7 7 9 10 10 10 9 8 7 7 7 6 5 5 4 3 4 5 5 5 5 6 6 5 5 4 4 4 3 4 4 3
3 3 3 3 4 6 7 7 7 7 6 5 6 9 11 10 9 8 8 7 7 7 7 6 5 5 5 5 6 6 5 6 6 6 5 4 4 3 3 3 3 3 3
3 3 3 4 5 6 7 7 7 6 5 4 6 8 8 7 7 7 7 7 7 7 6 6 5 5 6 6 7 7 6 6 6 6 4 3 3 2 2 2 2 3 3
4 3 3 4 5 7 7 7 6 4 4 3 4 6 6 6 6 6 6 6 6 6 5 5 5 5 5 5 5 5 5 6 6 5 4 3 2 2 2 1 1 2 2
4 3 3 5 6 7 7 5 4 4 4 3 4 6 7 7 7 6 6 7 7 6 5 5 6 6 5 3 2 3 4 5 5 4 3 3 2 2 2 2 1 1 1
3 3 4 5 6 6 5 4 3 3 4 4 6 9 11 10 9 8 8 8 7 6 6 6 7 7 5 2 1 2 4 5 4 3 3 3 3 3 2 2 2 2 2
3 3 4 5 5 4 3 2 2 3 3 4 7 11 12 11 10 9 8 8 7 6 5 6 6 6 5 2 0 2 4 5 3 2 2 2 3 2 2 2 3 2 2
3 3 4 4 3 2 2 1 2 2 2 3 6 9 9 9 9 8 7 7 6 5 5 4 5 5 4 2 0 2 4 4 2 2 2 2 2 1 1 2 3 3 3
3 3 3 3 2 2 1 1 2 2 2 3 4 5 5 6 6 6 6 6 5 5 4 4 3 4 3 1 0 1 2 2 1 1 2 2 1 1 1 1 2 3 3
2 3 2 2 1 1 1 2 2 2 2 2 2 2 3 4 4 5 6 6 7 6 4 3 2 2 1 1 0 0 0 1 1 1 1 1 1 0 0 1 1 2 2
2 2 2 1 1 1 1 2 2 2 2 2 2 2 2 3 4 6 7 8 7 6 4 2 1 1 1 1 0 0 0 0 0 1 1 1 0 0 0 0 0 1 2
2 2 2 1 1 1 1 1 1 2 2 2 2 2 3 4 6 8 8 8 6 5 3 2 1 1 1 1 0 0 0 0 0 0 1 1 1 0 0 0 1 2 3
2 2 2 1 1 1 1 1 1 2 2 2 2 2 4 6 7 8 7 5 4 3 2 2 1 1 1 0 0 0 0 0 0 0 1 1 1 2 2 2 2 3 4
2 2 1 1 1 2 2 2 1 1 2 2 2 3 5 7 8 7 4 3 2 2 1 1 1 1 1 0 0 0 0 0 0 0 1 1 2 3 3 3 3 3 4
Wind_Speed
7 6 6 7 7 7 7 7 6 6 5 4 4 4 4 3 2 2 2 2 2 3 3 2 3 3 2 2 2 2 3 2 2 2 2 3 3 3 3 3 3 4 4
7 7 7 7 7 7 7 6 6 6 5 4 3 2 2 2 2 1 1 2 2 3 3 2 3 2 2 2 2 2 2 2 2 3 2 3 4 3 3 3 3 3 3
8 8 7 7 7 7 6 5 5 5 5 4 4 3 3 3 3 2 2 2 2 2 2 3 2 2 3 2 2 3 3 2 2 2 3 2 1 2 3 3 2 2 2
8 8 8 7 7 6 6 6 5 5 5 5 4 5 4 3 2 2 2 2 2 2 2 2 2 2 2 2 3 2 3 3 3 2 2 3 3 2 1 3 3 3 2
8 8 8 8 7 7 6 6 6 5 4 4 4 4 3 2 2 3 3 3 2 2 2 3 2 2 2 2 2 2 3 3 3 2 2 2 2 4 3 2 2 3 2
8 8 7 7 7 7 6 6 6 5 4 4 4 4 4 3 3 3 3 3 2 2 2 3 3 3 2 2 3 3 3 3 3 3 3 3 3 3 3 3 3 3 2
7 8 8 8 7 7 6 6 6 5 5 4 4 3 4 4 4 3 3 3 3 2 2 2 3 3 3 2 2 3 3 3 3 3 3 3 3 3 3 3 3 3 2
6 7 8 7 7 7 7 6 6 5 5 5 4 4 4 3 3 3 3 3 2 2 2 3 3 3 2 3 3 3 3 3 3 4 4 3 3 3 3 4 4 4 3
5 6 7 7 6 7 6 6 6 5 5 5 5 4 4 3 3 3 4 2 2 2 3 3 3 3 2 2 3 2 2 2 3 4 4 4 3 3 3 4 4 4 4
5 5 6 6 6 6 6 6 6 5 5 5 5 4 5 4 4 4 3 2 2 2 3 3 3 3 3 3 3 3 2 3 3 3 3 3 3 3 3 3 4 4 4
5 5 5 5 5 5 6 6 6 5 5 5 4 4 5 5 4 4 3 3 3 3 3 3 3 3 4 3 3 3 3 4 3 3 3 4 3 3 3 3 4 3 3
4 4 5 5 5 5 5 5 5 5 5 5 5 5 5 5 4 4 4 3 3 4 4 4 4 4 4 3 3 3 3 4 4 4 4 4 3 4 4 3 3 3 3
3 4 4 4 5 4 4 4 5 5 5 5 6 5 5 5 4 4 4 4 4 4 5 4 5 4 4 4 3 4 4 4 4 4 4 4 3 4 3 3 3 3 3
3 4 4 4 4 4 4 4 4 4 5 5 5 5 5 5 5 4 4 4 4 5 5 5 5 4 4 4 4 4 4 4 4 4 3 4 4 3 3 3 4 4 4
3 3 3 3 3 3 4 4 4 4 4 5 5 5 5 5 5 5 4 4 5 5 5 4 4 4 4 3 4 4 4 4 4 4 3 3 2 1 3 3 3 4 4
3 3 3 3 3 3 3 3 4 3 4 5 5 4 5 5 5 5 4 4 4 4 4 4 4 4 2 1 2 4 4 4 4 4 3 4 4 4 4 3 4 4 5
2 3 2 2 2 3 3 4 4 4 4 4 4 4 4 4 4 4 4 4 4 4 4 4 4 3 2 3 3 4 4 4 3 3 3 3 2 3 3 4 6 6 6
1 1 1 2 2 3 3 3 4 4 4 4 4 3 4 4 4 3 4 4 3 3 4 4 3 3 2 4 4 3 4 3 3 3 3 3 3 2 3 4 4 5 5
1 0 1 1 2 2 3 3 4 4 3 3 3 2 3 3 3 3 3 3 3 3 3 4 4 3 3 3 4 5 4 3 3 4 3 4 4 1 2 5 4 4 4
1 1 1 1 1 1 2 3 3 3 2 3 3 2 2 2 3 2 2 2 3 3 3 3 3 3 3 3 4 5 4 3 3 3 3 3 2 2 3 5 5 5 4
2 1 1 2 1 1 2 2 2 1 2 2 2 2 1 2 2 2 2 3 3 3 3 3 3 3 2 4 5 4 4 3 3 3 3 3 4 3 4 6 4 3 5
1 1 1 2 2 1 1 1 1 1 1 1 1 1 1 1 2 2 2 3 3 3 3 3 3 3 3 3 5 5 5 5 4 4 2 2 4 4 5 5 2 4 6
1 1 1 2 2 1 1 1 0 0 1 2 2 2 1 1 1 2 2 3 3 3 3 3 2 2 2 3 5 5 5 5 4 2 2 1 4 4 5 6 5 5 4
2 2 2 1 1 1 1 1 0 0 1 2 2 2 2 1 1 1 1 2 2 3 2 2 2 2 2 2 3 4 5 6 5 4 4 6 7 6 5 4 5 4 3
2 2 1 1 1 0 0 0 0 1 1 2 2 2 2 1 1 1 1 1 1 1 2 1 1 1 1 2 3 1 1 1 0 2 4 4 3 4 4 3 3 3 3
3 2 2 1 1 0 0 0 0 1 1 2 2 1 1 1 1 1 1 3 2 2 1 2 2 1 3 2 2 1 2 1 1 3 3 3 3 3 3 2 2 3 2
Wind_Direction
168 163 164 158 153 151 153 159 165 161 173 181 189 184 189 195 193 193 190 194 193 198 218 215 184 210 193 197 189 200 197 207 215 225 218 203 203 206 209 220 218 200 198
165 162 164 164 162 159 160 161 163 166 177 175 191 195 196 191 179 186 178 197 191 211 209 220 213 201 189 186 193 214 229 201 220 246 233 209 194 198 204 208 206 210 199
173 167 167 166 162 160 164 161 163 167 172 168 176 171 175 187 180 180 178 195 202 206 235 221 228 216 219 190 207 211 229 231 216 244 264 265 234 163 168 190 193 199 209
176 170 168 165 163 159 156 153 153 158 162 174 182 188 198 196 181 186 170 184 204 212 201 216 224 236 236 209 222 205 234 241 232 208 247 292 322 279 193 181 173 187 203
179 175 173 168 162 158 153 150 147 148 156 177 181 196 200 193 178 182 173 194 189 211 209 200 213 222 229 224 229 210 239 238 249 234 216 221 233 255 259 237 204 191 190
182 179 175 168 161 158 156 152 152 154 161 176 183 196 190 193 190 197 188 196 188 201 210 210 211 216 221 226 229 223 221 244 252 257 247 242 243 238 238 245 238 227 198
185 181 178 173 168 164 163 159 157 162 168 176 183 190 190 190 197 207 201 214 199 195 201 220 216 214 211 216 227 219 232 226 233 245 253 257 264 270 263 259 256 249 220
187 185 181 174 172 170 168 167 166 168 174 177 180 190 199 206 198 213 228 214 220 205 188 208 210 216 215 212 214 221 216 218 228 241 250 255 253 254 254 262 265 257 242
184 183 180 177 175 173 172 176 174 175 181 182 181 187 199 210 199 199 222 216 216 202 188 198 201 203 205 216 223 219 221 223 229 230 224 239 240 241 252 256 257 266 262
178 176 176 178 177 176 174 179 184 184 186 187 192 187 193 197 198 210 208 222 224 219 202 200 205 204 200 209 225 220 204 218 230 241 245 248 246 233 241 246 248 258 273
183 177 175 175 173 176 177 181 184 187 190 189 193 196 194 191 195 204 210 211 217 215 214 209 211 208 202 203 215 228 220 224 230 235 231 233 253 254 241 234 241 248 257
188 176 173 172 174 177 182 183 187 193 195 191 195 200 196 191 195 200 214 215 218 225 223 221 217 216 209 200 207 223 225 230 233 233 235 239 231 236 251 246 247 253 261
186 178 172 176 178 179 184 188 196 197 198 197 199 199 201 198 201 205 214 220 221 228 229 226 222 221 219 213 212 220 226 234 238 238 238 241 244 247 247 246 249 249 247
192 189 179 178 178 181 187 196 202 199 203 203 203 201 203 204 206 206 211 221 225 225 226 226 224 224 224 222 225 226 226 229 234 232 235 241 241 246 254 244 241 250 255
199 192 185 175 178 184 192 195 195 200 206 204 203 205 202 201 202 205 213 221 227 224 220 224 224 223 222 223 228 228 226 226 227 224 222 223 226 252 271 276 267 259 257
203 196 190 183 189 197 203 199 201 200 205 209 206 202 201 200 203 210 216 219 223 223 217 216 218 223 225 132 240 253 231 229 226 225 221 209 200 202 210 239 268 277 269
194 193 191 196 204 213 213 211 210 209 208 211 209 204 202 202 204 209 211 215 216 213 214 214 214 215 178 166 203 240 238 231 230 226 231 241 202 229 233 218 223 234 238
160 181 193 196 201 208 211 215 203 204 203 203 205 205 207 203 204 208 216 216 215 215 214 212 212 213 187 174 188 216 226 234 234 230 232 239 243 243 271 258 247 247 233
24 81 191 179 183 194 199 200 197 195 197 202 206 201 202 206 199 205 210 205 207 213 212 205 201 203 182 175 196 222 217 218 232 238 238 242 237 157 267 258 256 260 256
62 77 100 129 134 169 183 188 187 187 197 207 205 197 192 203 196 192 202 195 200 207 213 198 199 202 195 165 193 227 232 217 225 218 219 203 224 205 241 252 257 261 271
85 97 111 101 88 117 155 168 166 189 223 215 185 169 169 193 185 181 196 200 204 197 207 198 197 203 202 169 184 218 247 243 237 233 226 173 164 206 232 255 264 273 279
109 111 104 82 81 101 134 147 159 209 206 158 138 137 151 188 164 170 190 200 204 196 198 197 200 192 189 183 175 192 228 275 256 253 252 142 156 203 232 240 250 262 263
145 131 118 94 79 68 94 125 79 228 160 128 122 128 138 147 144 172 196 204 205 216 206 199 204 197 183 162 167 184 208 237 250 278 15 130 185 213 221 216 232 243 249
147 139 127 115 89 52 37 51 52 282 146 124 130 143 155 162 157 205 223 224 212 210 211 212 220 214 198 191 171 184 192 199 217 236 205 203 215 229 246 229 218 233 258
135 131 135 139 123 103 113 146 174 202 167 156 160 166 169 162 157 145 1 292 314 334 279 269 258 254 210 77 29 317 264 265 303 260 236 230 221 224 227 231 239 243 241
144 138 136 126 101 112 178 164 188 194 193 178 169 175 175 156 183 149 102 54 30 73 60 1 325 40 64 102 101 75 51 25 271 246 237 243 250 255 260 258 254 254 258